Weather History for KMNE - June, 2013

Change the Weather History Date:

Thursday, June 13, 2013

  Actual Average (KBAD) Record (KBAD)
Temperature  
Mean Temperature 84 °F -  
Max Temperature 95 °F 85 °F 100 °F (2011)
Min Temperature 73 °F 68 °F 66 °F (1997)
Cooling Degree Days 19    
Growing Degree Days 34 (Base 50)    
Moisture  
Dew Point 73 °F    
Average Humidity 71    
Maximum Humidity 92    
Minimum Humidity 44    
Precipitation  
Precipitation 0.00 in - - ()
Sea Level Pressure  
Sea Level Pressure 29.99 in    
Wind  
Wind Speed 3 mph (WSW)    
Max Wind Speed 14 mph    
Max Gust Speed -    
Visibility 9 miles    
Events      
Averages and records for this station are not official NWS values.
T = Trace of Precipitation, MM = Missing Value Source: NWS Daily Summary

Daily Weather History Graph

Daily Weather History Graph

Search for Another Location

Airport or City:

Trip Planner

Search our weather history database for the weather conditions in past years. The results will help you decide how hot, cold, wet, or windy it might be!

Date:

Astronomy

Jun. 13, 2013 Rise Set
Actual Time 6:04 AM CDT 8:21 PM CDT
Civil Twilight 5:36 AM CDT 8:50 PM CDT
Nautical Twilight 5:01 AM CDT 9:25 PM CDT
Astronomical Twilight 4:23 AM CDT 10:03 PM CDT
Moon 10:29 AM CDT (6/13) 11:42 PM CDT (6/13)
Length of Visible Light 15h 13m
Length of Day
14h 16m
Waxing Crescent, 22% of the Moon is Illuminated
Jun 13
Waxing Crescent
Jun 16
First Quarter
Jun 23
Full
Jun 29
Last Quarter
Jul 8
New

Hourly Weather History & Observations

Time (CDT) Temp. Heat Index Dew Point Humidity Pressure Visibility Wind Dir Wind Speed Gust Speed Precip Events Conditions
12:15 AM 77.5 °F - 71.6 °F 82% 30.01 in 10.0 mi Calm Calm - N/A   Clear
12:35 AM 78.3 °F - 71.6 °F 80% 30.01 in 10.0 mi Calm Calm - N/A   Clear
12:55 AM 76.6 °F - 71.4 °F 84% 30.01 in 10.0 mi Calm Calm - N/A   Clear
1:15 AM 75.7 °F - 71.6 °F 87% 30.01 in 10.0 mi Calm Calm - N/A   Clear
1:35 AM 75.2 °F - 71.6 °F 89% 30.01 in 10.0 mi Calm Calm - N/A   Clear
1:55 AM 74.3 °F - 70.7 °F 88% 30.01 in 10.0 mi Calm Calm - N/A   Clear
2:15 AM 74.1 °F - 70.7 °F 89% 30.01 in 10.0 mi Calm Calm - N/A   Clear
2:35 AM 73.8 °F - 70.7 °F 90% 30.01 in 10.0 mi Calm Calm - N/A   Clear
2:55 AM 73.4 °F - 70.2 °F 90% 30.01 in 10.0 mi Calm Calm - N/A   Clear
3:15 AM 74.3 °F - 71.1 °F 90% 30.01 in 10.0 mi Calm Calm - N/A   Clear
3:35 AM 74.8 °F - 71.6 °F 90% 30.01 in 10.0 mi South 4.6 mph - N/A   Clear
3:55 AM 75.6 °F - 72.0 °F 89% 30.01 in 10.0 mi SSW 4.6 mph - N/A   Clear
4:15 AM 75.6 °F - 72.1 °F 89% 30.01 in 10.0 mi SSW 3.5 mph - N/A   Clear
4:35 AM 75.4 °F - 72.1 °F 90% 30.01 in 10.0 mi South 3.5 mph - N/A   Clear
4:55 AM 75.4 °F - 72.5 °F 91% 30.01 in 7.0 mi Calm Calm - N/A   Clear
5:15 AM 75.2 °F - 72.5 °F 91% 30.02 in 7.0 mi Calm Calm - N/A   Clear
5:35 AM 75.0 °F - 72.1 °F 91% 30.02 in 5.0 mi Calm Calm - N/A   Clear
5:55 AM 74.8 °F - 72.1 °F 91% 30.03 in 5.0 mi Calm Calm - N/A   Clear
6:15 AM 74.7 °F - 72.1 °F 92% 30.03 in 3.0 mi Calm Calm - N/A   Clear
6:35 AM 74.8 °F - 72.5 °F 92% 30.04 in 4.0 mi Calm Calm - N/A   Clear
6:55 AM 75.6 °F - 73.0 °F 92% 30.04 in 4.0 mi Calm Calm - N/A   Clear
7:15 AM 76.6 °F - 73.6 °F 90% 30.04 in 5.0 mi Calm Calm - N/A   Clear
7:35 AM 77.9 °F - 73.9 °F 88% 30.05 in 7.0 mi Calm Calm - N/A   Scattered Clouds
7:55 AM 79.2 °F - 74.5 °F 86% 30.05 in 7.0 mi SSW 4.6 mph - N/A   Scattered Clouds
8:15 AM 80.1 °F 84.8 °F 74.7 °F 83% 30.06 in 10.0 mi WSW 3.5 mph - N/A   Scattered Clouds
8:35 AM 81.9 °F 88.5 °F 75.0 °F 80% 30.06 in 10.0 mi WSW 6.9 mph - N/A   Scattered Clouds
8:55 AM 83.5 °F 90.6 °F 74.5 °F 74% 30.06 in 10.0 mi West 9.2 mph - N/A   Scattered Clouds
9:15 AM 85.1 °F 93.3 °F 74.8 °F 71% 30.06 in 10.0 mi West 5.8 mph - N/A   Clear
9:35 AM 86.0 °F 94.2 °F 74.1 °F 68% 30.06 in 10.0 mi West 10.4 mph - N/A   Scattered Clouds
9:55 AM 86.5 °F 94.2 °F 73.4 °F 65% 30.06 in 10.0 mi WSW 10.4 mph - N/A   Scattered Clouds
10:15 AM 87.6 °F 95.7 °F 73.4 °F 63% 30.06 in 10.0 mi WSW 9.2 mph - N/A   Scattered Clouds
10:35 AM 88.0 °F 96.0 °F 73.6 °F 62% 30.06 in 10.0 mi SW 6.9 mph - N/A   Scattered Clouds
10:55 AM 88.5 °F 96.8 °F 73.4 °F 61% 30.05 in 10.0 mi WSW 9.2 mph - N/A   Scattered Clouds
11:15 AM 89.1 °F 96.5 °F 72.7 °F 58% 30.05 in 10.0 mi West 11.5 mph - N/A   Scattered Clouds
11:35 AM 90.0 °F 98.5 °F 73.2 °F 58% 30.05 in 10.0 mi West 10.4 mph - N/A   Clear
11:55 AM 89.6 °F 97.7 °F 73.2 °F 58% 30.04 in 10.0 mi West 13.8 mph - N/A   Scattered Clouds
12:15 PM 91.0 °F 99.3 °F 72.9 °F 55% 30.04 in 10.0 mi West 9.2 mph - N/A   Scattered Clouds
12:35 PM 91.8 °F 99.7 °F 72.7 °F 53% 30.03 in 10.0 mi WSW 6.9 mph - N/A   Scattered Clouds
12:55 PM 93.0 °F 101.9 °F 73.0 °F 52% 30.02 in 10.0 mi SW 9.2 mph - N/A   Scattered Clouds
1:15 PM 92.7 °F 103.0 °F 74.1 °F 55% 30.02 in 10.0 mi WNW 6.9 mph - N/A   Scattered Clouds
1:35 PM 91.8 °F 100.3 °F 73.2 °F 54% 30.01 in 10.0 mi WNW 4.6 mph - N/A   Scattered Clouds
1:55 PM 93.7 °F 102.3 °F 72.3 °F 50% 30.00 in 10.0 mi WSW 8.1 mph - N/A   Scattered Clouds
2:15 PM 93.4 °F 102.1 °F 72.9 °F 51% 30.00 in 10.0 mi West 3.5 mph - N/A   Scattered Clouds
2:35 PM 93.6 °F 101.9 °F 72.3 °F 50% 29.99 in 10.0 mi WNW 8.1 mph - N/A   Scattered Clouds
2:55 PM 94.5 °F 103.3 °F 72.5 °F 49% 29.98 in 10.0 mi WSW 6.9 mph - N/A   Scattered Clouds
3:15 PM 94.6 °F 102.4 °F 71.6 °F 47% 29.97 in 10.0 mi WNW 8.1 mph - N/A   Scattered Clouds
3:35 PM 95.0 °F 102.5 °F 71.4 °F 46% 29.97 in 10.0 mi West 6.9 mph - N/A   Scattered Clouds
3:55 PM 95.4 °F 102.0 °F 70.0 °F 44% 29.96 in 10.0 mi NW 4.6 mph - N/A   Scattered Clouds
4:15 PM 94.8 °F 100.9 °F 69.8 °F 44% 29.95 in 10.0 mi West 3.5 mph - N/A   Clear
4:35 PM 94.8 °F 101.5 °F 70.3 °F 45% 29.95 in 10.0 mi West 6.9 mph - N/A   Clear
4:55 PM 95.0 °F 101.3 °F 69.8 °F 44% 29.94 in 10.0 mi WSW 4.6 mph - N/A   Scattered Clouds
5:15 PM 94.3 °F 101.6 °F 71.1 °F 47% 29.94 in 10.0 mi West 4.6 mph - N/A   Scattered Clouds
5:35 PM 94.6 °F 101.8 °F 71.2 °F 46% 29.93 in 10.0 mi WNW 3.5 mph - N/A   Scattered Clouds
5:55 PM 94.1 °F 101.2 °F 70.9 °F 47% 29.92 in 10.0 mi WNW 3.5 mph - N/A   Clear
6:15 PM 93.6 °F 100.7 °F 71.1 °F 48% 29.91 in 10.0 mi Calm Calm - N/A   Clear
6:35 PM 93.4 °F 101.5 °F 72.1 °F 50% 29.91 in 10.0 mi West 3.5 mph - N/A   Clear
6:55 PM 92.8 °F 100.3 °F 71.4 °F 50% 29.91 in 10.0 mi West 3.5 mph - N/A   Clear
7:15 PM 92.5 °F 99.6 °F 71.2 °F 50% 29.91 in 10.0 mi West 4.6 mph - N/A   Clear
7:35 PM 91.4 °F 99.5 °F 72.5 °F 54% 29.91 in 10.0 mi Calm Calm - N/A   Clear
7:55 PM 88.2 °F 96.9 °F 74.3 °F 63% 29.91 in 10.0 mi Calm Calm - N/A   Clear
8:15 PM 86.2 °F 95.1 °F 75.0 °F 69% 29.91 in 10.0 mi Calm Calm - N/A   Clear
8:35 PM 85.1 °F 93.7 °F 75.0 °F 72% 29.91 in 10.0 mi Calm Calm - N/A   Clear
8:55 PM 83.5 °F 91.9 °F 76.1 °F 78% 29.92 in 10.0 mi Calm Calm - N/A   Clear
9:15 PM 83.3 °F 90.8 °F 75.2 °F 76% 29.92 in 10.0 mi Calm Calm - N/A   Clear
9:35 PM 82.6 °F 89.9 °F 75.6 °F 79% 29.93 in 10.0 mi Calm Calm - N/A   Clear
9:55 PM 82.2 °F 89.9 °F 76.1 °F 82% 29.94 in 10.0 mi Calm Calm - N/A   Clear
10:15 PM 81.1 °F 87.8 °F 76.1 °F 85% 29.94 in 10.0 mi Calm Calm - N/A   Clear
10:35 PM 80.6 °F 86.4 °F 75.7 °F 85% 29.94 in 10.0 mi Calm Calm - N/A   Clear
10:55 PM 80.1 °F 85.2 °F 75.6 °F 86% 29.94 in 10.0 mi Calm Calm - N/A   Clear
11:15 PM 80.6 °F 86.4 °F 75.6 °F 85% 29.94 in 10.0 mi Calm Calm - N/A   Clear
11:35 PM 79.7 °F - 75.4 °F 87% 29.94 in 10.0 mi Calm Calm - N/A   Clear
11:55 PM 79.7 °F - 75.6 °F 87% 29.94 in 10.0 mi Calm Calm - N/A   Clear